• In Österreich
  • Länderverzeichnis
  • Für 7 Tage
  • Wassertemperatur
  • Satellitenkarten
  • Wetterkarte
  • News
  • Widgets
  • user-avatar
    Anmelden

    Stündliche Wetter Benguela

    Heute, 18 Dezember, Montag

    Zeit Temperatur Niederschläge Wind Luftdruck Luftfeuchtigkeit
    00:00 +28°C° 0,2 mm 2 m/S 759 mmHg 84%
    01:00 +28°C° 0 mm 2 m/S 758 mmHg 85%
    02:00 +28°C° 0 mm 1 m/S 758 mmHg 85%
    03:00 +27°C° 0 mm 1 m/S 758 mmHg 86%
    04:00 +27°C° 0 mm 1 m/S 758 mmHg 86%
    05:00 +28°C° 0 mm 1 m/S 758 mmHg 85%
    06:00 +28°C° 0 mm 1 m/S 758 mmHg 84%
    07:00 +28°C° 0 mm 1 m/S 759 mmHg 82%
    08:00 +29°C° 0 mm 1 m/S 759 mmHg 76%
    09:00 +31°C° 0 mm 1 m/S 759 mmHg 70%
    10:00 +32°C° 0 mm 2 m/S 759 mmHg 64%
    11:00 +34°C° 0 mm 2 m/S 758 mmHg 60%
    12:00 +35°C° 0 mm 3 m/S 757 mmHg 57%
    13:00 +36°C° 0 mm 4 m/S 757 mmHg 53%
    14:00 +35°C° 0 mm 4 m/S 756 mmHg 56%
    15:00 +34°C° 0 mm 5 m/S 756 mmHg 60%
    16:00 +34°C° 0 mm 5 m/S 755 mmHg 63%
    17:00 +32°C° 0 mm 4 m/S 756 mmHg 70%
    18:00 +30°C° 0 mm 4 m/S 756 mmHg 76%
    19:00 +28°C° 0 mm 3 m/S 757 mmHg 83%
    20:00 +28°C° 0 mm 2 m/S 757 mmHg 85%
    21:00 +27°C° 0 mm 2 m/S 758 mmHg 87%
    22:00 +27°C° 0 mm 1 m/S 758 mmHg 89%
    23:00 +27°C° 0 mm 1 m/S 758 mmHg 89%

    Morgen, 19 Dezember, Dienstag

    Zeit Temperatur Niederschläge Wind Luftdruck Luftfeuchtigkeit
    00:00 +27°C° 0 mm 1 m/S 758 mmHg 90%
    01:00 +27°C° 0 mm 1 m/S 758 mmHg 90%
    02:00 +27°C° 0 mm 1 m/S 757 mmHg 90%
    03:00 +27°C° 0 mm 1 m/S 757 mmHg 89%
    04:00 +27°C° 0 mm 1 m/S 757 mmHg 89%
    05:00 +27°C° 0 mm 1 m/S 757 mmHg 87%
    06:00 +27°C° 0 mm 1 m/S 758 mmHg 85%
    07:00 +28°C° 0 mm 1 m/S 758 mmHg 84%
    08:00 +29°C° 0 mm 1 m/S 758 mmHg 77%
    09:00 +30°C° 0 mm 2 m/S 758 mmHg 71%
    10:00 +33°C° 0 mm 3 m/S 758 mmHg 64%
    11:00 +33°C° 0 mm 3 m/S 758 mmHg 65%
    12:00 +33°C° 0 mm 4 m/S 758 mmHg 65%
    13:00 +34°C° 0 mm 5 m/S 757 mmHg 65%
    14:00 +33°C° 0,1 mm 4 m/S 757 mmHg 69%
    15:00 +32°C° 0,1 mm 4 m/S 757 mmHg 73%
    16:00 +30°C° 0,1 mm 4 m/S 757 mmHg 76%
    17:00 +29°C° 0,1 mm 3 m/S 757 mmHg 80%
    18:00 +29°C° 0,1 mm 3 m/S 757 mmHg 83%
    19:00 +28°C° 0,1 mm 2 m/S 758 mmHg 86%
    20:00 +28°C° 0,2 mm 2 m/S 758 mmHg 87%
    21:00 +28°C° 0,2 mm 1 m/S 759 mmHg 88%
    22:00 +27°C° 0,2 mm 1 m/S 759 mmHg 89%
    23:00 +27°C° 0,1 mm 1 m/S 759 mmHg 89%

    übermorgen, 20 Dezember, Mittwoch

    Zeit Temperatur Niederschläge Wind Luftdruck Luftfeuchtigkeit
    00:00 +27°C° 0,1 mm 1 m/S 759 mmHg 89%
    01:00 +25°C° 0,1 mm 0 m/S 758 mmHg 89%
    02:00 +25°C° 0,2 mm 0 m/S 758 mmHg 89%
    03:00 +27°C° 0,2 mm 1 m/S 758 mmHg 89%
    04:00 +27°C° 0,2 mm 1 m/S 758 mmHg 90%
    05:00 +27°C° 0,3 mm 1 m/S 758 mmHg 89%
    06:00 +27°C° 0,3 mm 1 m/S 758 mmHg 89%
    07:00 +27°C° 0,3 mm 1 m/S 758 mmHg 88%
    08:00 +27°C° 0,3 mm 1 m/S 759 mmHg 86%
    09:00 +28°C° 0,3 mm 1 m/S 759 mmHg 84%
    10:00 +28°C° 0,3 mm 1 m/S 759 mmHg 83%
    11:00 +28°C° 0,2 mm 1 m/S 759 mmHg 79%
    12:00 +29°C° 0,2 mm 1 m/S 758 mmHg 76%
    13:00 +30°C° 0,2 mm 2 m/S 758 mmHg 72%
    14:00 +30°C° 0,1 mm 2 m/S 758 mmHg 72%
    15:00 +30°C° 0,1 mm 3 m/S 757 mmHg 71%
    16:00 +30°C° 0,1 mm 3 m/S 757 mmHg 70%
    17:00 +30°C° 0 mm 3 m/S 757 mmHg 75%
    18:00 +29°C° 0 mm 2 m/S 758 mmHg 79%
    19:00 +28°C° 0 mm 2 m/S 758 mmHg 83%
    20:00 +28°C° 0 mm 2 m/S 759 mmHg 83%
    21:00 +28°C° 0 mm 2 m/S 759 mmHg 84%
    22:00 +27°C° 0 mm 2 m/S 760 mmHg 84%
    23:00 +27°C° 0 mm 2 m/S 759 mmHg 85%

    21 Dezember, Donnerstag

    Zeit Temperatur Niederschläge Wind Luftdruck Luftfeuchtigkeit
    00:00 +27°C° 0 mm 2 m/S 759 mmHg 85%
    01:00 +26°C° 0 mm 2 m/S 758 mmHg 85%
    02:00 +26°C° 0 mm 2 m/S 758 mmHg 85%
    03:00 +26°C° 0 mm 2 m/S 758 mmHg 85%
    04:00 +26°C° 0 mm 2 m/S 758 mmHg 85%
    05:00 +26°C° 0 mm 2 m/S 758 mmHg 83%
    06:00 +27°C° 0 mm 1 m/S 759 mmHg 80%
    07:00 +27°C° 0 mm 1 m/S 759 mmHg 78%
    08:00 +29°C° 0 mm 1 m/S 759 mmHg 70%
    09:00 +31°C° 0 mm 2 m/S 759 mmHg 63%
    10:00 +34°C° 0 mm 2 m/S 759 mmHg 55%
    11:00 +34°C° 0 mm 3 m/S 759 mmHg 55%
    12:00 +35°C° 0 mm 4 m/S 758 mmHg 54%
    13:00 +35°C° 0 mm 4 m/S 757 mmHg 53%
    14:00 +35°C° 0 mm 4 m/S 757 mmHg 55%
    15:00 +34°C° 0 mm 4 m/S 757 mmHg 57%
    16:00 +34°C° 0 mm 4 m/S 756 mmHg 59%
    17:00 +32°C° 0 mm 4 m/S 757 mmHg 65%
    18:00 +30°C° 0 mm 3 m/S 758 mmHg 72%
    19:00 +28°C° 0 mm 2 m/S 758 mmHg 79%
    20:00 +28°C° 0 mm 2 m/S 759 mmHg 81%
    21:00 +27°C° 0 mm 2 m/S 759 mmHg 83%
    22:00 +27°C° 0 mm 2 m/S 760 mmHg 85%
    23:00 +27°C° 0 mm 2 m/S 760 mmHg 86%

    22 Dezember, Freitag

    Zeit Temperatur Niederschläge Wind Luftdruck Luftfeuchtigkeit
    00:00 +26°C° 0 mm 2 m/S 759 mmHg 87%
    01:00 +26°C° 0 mm 2 m/S 759 mmHg 88%
    02:00 +26°C° 0 mm 2 m/S 759 mmHg 89%
    03:00 +26°C° 0 mm 2 m/S 758 mmHg 89%
    04:00 +26°C° 0 mm 2 m/S 758 mmHg 90%
    05:00 +26°C° 0 mm 2 m/S 759 mmHg 87%
    06:00 +27°C° 0 mm 2 m/S 759 mmHg 85%
    07:00 +27°C° 0 mm 2 m/S 759 mmHg 82%
    08:00 +29°C° 0 mm 2 m/S 759 mmHg 72%
    09:00 +31°C° 0 mm 2 m/S 759 mmHg 63%
    10:00 +35°C° 0 mm 2 m/S 759 mmHg 53%
    11:00 +35°C° 0 mm 3 m/S 758 mmHg 51%
    12:00 +36°C° 0 mm 4 m/S 758 mmHg 48%
    13:00 +36°C° 0 mm 5 m/S 757 mmHg 46%
    14:00 +36°C° 0 mm 5 m/S 757 mmHg 49%
    15:00 +35°C° 0 mm 5 m/S 756 mmHg 52%
    16:00 +34°C° 0 mm 5 m/S 756 mmHg 55%
    17:00 +33°C° 0 mm 5 m/S 756 mmHg 61%
    18:00 +30°C° 0 mm 4 m/S 757 mmHg 67%
    19:00 +28°C° 0 mm 4 m/S 757 mmHg 74%
    20:00 +28°C° 0 mm 3 m/S 758 mmHg 76%
    21:00 +27°C° 0 mm 3 m/S 758 mmHg 78%
    22:00 +27°C° 0 mm 2 m/S 759 mmHg 81%
    23:00 +26°C° 0 mm 2 m/S 758 mmHg 82%

    23 Dezember, Samstag

    Zeit Temperatur Niederschläge Wind Luftdruck Luftfeuchtigkeit
    00:00 +26°C° 0 mm 2 m/S 758 mmHg 84%
    01:00 +26°C° 0 mm 2 m/S 758 mmHg 86%
    02:00 +25°C° 0 mm 2 m/S 758 mmHg 87%
    03:00 +25°C° 0 mm 1 m/S 758 mmHg 89%
    04:00 +25°C° 0 mm 1 m/S 757 mmHg 90%
    05:00 +25°C° 0 mm 1 m/S 758 mmHg 89%
    06:00 +26°C° 0 mm 1 m/S 758 mmHg 87%
    07:00 +26°C° 0 mm 1 m/S 758 mmHg 86%
    08:00 +28°C° 0 mm 1 m/S 758 mmHg 76%
    09:00 +30°C° 0 mm 2 m/S 758 mmHg 67%
    10:00 +32°C° 0 mm 2 m/S 758 mmHg 58%
    11:00 +34°C° 0 mm 3 m/S 758 mmHg 55%
    12:00 +34°C° 0 mm 3 m/S 757 mmHg 52%
    13:00 +35°C° 0 mm 4 m/S 756 mmHg 50%
    14:00 +34°C° 0 mm 4 m/S 756 mmHg 53%
    15:00 +34°C° 0 mm 4 m/S 756 mmHg 56%
    16:00 +33°C° 0 mm 4 m/S 755 mmHg 59%
    17:00 +30°C° 0 mm 4 m/S 756 mmHg 67%
    18:00 +29°C° 0 mm 3 m/S 756 mmHg 74%
    19:00 +27°C° 0 mm 3 m/S 757 mmHg 82%
    20:00 +27°C° 0 mm 3 m/S 757 mmHg 84%
    21:00 +26°C° 0 mm 2 m/S 758 mmHg 87%
    22:00 +26°C° 0 mm 2 m/S 759 mmHg 89%
    23:00 +25°C° 0 mm 2 m/S 758 mmHg 90%
    Mehr zeigen